Location: Alladorf
(49.9620°N, 11.3790°E)
Time: 20:29:25
(UTC+00:00)

Cosmos 1437 Rocket - Pass Details

Date: 29 November 2020
Orbit: 504 x 563 km, 81.2° (Epoch: 25 January)

Event Time Altitude Azimuth Distance (km) Brightness Sun altitude
Exits shadow 04:34:46 - 1° (N) 1,875 5.4 -20.8°
Reaches altitude 10° 04:35:08 10° 3° (N) 1,739 5.3 -20.7°
Maximum altitude 04:38:39 35° 71° (ENE) 835 4.2 -20.1°
Drops below altitude 10° 04:42:08 10° 139° (SE) 1,716 6.1 -19.6°
Sets 04:44:22 0° 148° (SSE) 2,596 6.9 -19.2°
